PROFILE

 METAR AND TAF INFORMATION
ADDS - METARS form results

(1147 UTC 16 October 2019)
http://aviationweather.gov/metar/data/
 
ENSG 161120Z 06004KT 9999 BKN038 07/03 Q1006 RMK WIND 3806FT 09012KT
ENSG 161050Z 04006KT 9999 BKN040 07/02 Q1006 RMK WIND 3806FT 09014KT

 AIRPORT MAP

 RUNWAY INFORMATION
Runway 06 Runway length 3150 ft Runway width 0 ft
Runway elevation 1619 ft Runway displaced threshold 0 ft Runway heading 0
Runway 24 Runway length 3150 ft Runway width 0 ft
Runway elevation 1634 ft Runway displaced threshold 0 ft Runway heading 0

 AIRPORT FREQUENCIES
Type AFIS Name Sogndal Frequency 119.3 MHZ
Type INFO Name Sogndal In Frequency 121.5 MHZ

 AIRPORT NEAR NAVIGATION AIDS
Type VOR-DME Name Sogndal Frequency 114200 KHZ